Location: Bannatyne
(13.0833°N, 59.5333°W)
Time: 04:41:56
(UTC+00:00)

deb Explorer IX - Pass Details

Date: 24 January 2020
Orbit: 549 x 1099 km, 38.8° (Epoch: 18 February)

Event Time Altitude Azimuth Distance (km) Brightness Sun altitude
Rises 08:25:43 0° 317° (NW) 3,734 - -28.6°
Reaches altitude 10° 08:28:41 10° 323° (NW) 2,710 - -27.9°
Exits shadow 08:33:25 38° 359° (N) 1,337 ? -26.8°
Maximum altitude 08:34:51 44° 34° (NE) 1,184 ? -26.5°
Drops below altitude 10° 08:40:10 10° 106° (ESE) 2,340 ? -25.2°
Sets 08:42:33 0° 113° (ESE) 3,179 ? -24.7°
